User: anonymous   Login
Location: Newark
(7.0858°N, 171.3717°E)
Time: 06:25:29
(UTC+00:00)
Language:

Oscar 19 - Orbit

View from above orbital plane
View from above orbital plane
View from above satellite
View from above satellite

Ground track
Ground track

The orbit data is extracted from the following two-line orbital elements,

1 20442U 90005G   19294.10072270  .00000006  00000-0  18533-4 0  9990
2 20442  98.6598 235.9497 0012408 138.5799 221.6328 14.32935499554192
Epoch (UTC): 21 October 2019 02:25:02
Eccentricity: 0.0012408
inclination: 98.6598°
perigee height: 773 km
apogee height: 791 km
right ascension of ascending node: 235.9497°
argument of perigee: 138.5799°
revolutions per day: 14.32935499
mean anomaly at epoch: 221.6328°
orbit number at epoch: 55419

The dashed part of the orbit path shows where the satellite is in the earth's shadow,  

DLR